Spencer, IA

8:04 AM CST on November 20, 2017 (GMT -0600)
Spencer Municipal

Weather History for KSPW - November, 2012

Change the Weather History Date:

Sunday, November 11, 2012

  Actual Average Record
Temperature  
Mean Temperature 32 °F -  
Max Temperature 44 °F 39 °F 71 °F (2005)
Min Temperature 19 °F 21 °F -12 °F (1986)
Degree Days  
Heating Degree Days 34    
Moisture  
Dew Point 22 °F    
Average Humidity 76    
Maximum Humidity 93    
Minimum Humidity 58    
Precipitation  
Precipitation 0.01 in - - ()
Sea Level Pressure  
Sea Level Pressure 29.87 in    
Wind  
Wind Speed 20 mph (WNW)    
Max Wind Speed 26 mph    
Max Gust Speed 36 mph    
Visibility 10 miles    
Events Rain    
Averages and records for this station are not official NWS values.
T = Trace of Precipitation, MM = Missing Value Source: NWS Daily Summary

Daily Weather History Graph

Daily Weather History Graph

Search for Another Location

Airport or City:

Trip Planner

Search our weather history database for the weather conditions in past years. The results will help you decide how hot, cold, wet, or windy it might be!

Date:

Astronomy

Nov. 11, 2012 Rise Set
Actual Time 7:09 AM CST 5:00 PM CST
Civil Twilight 6:38 AM CST 5:30 PM CST
Nautical Twilight 6:04 AM CST 6:04 PM CST
Astronomical Twilight 5:31 AM CST 6:38 PM CST
Moon 4:20 AM CST (11/11) 3:26 PM CST (11/11)
Length of Visible Light 10h 51m
Length of Day
9h 50m
Waning Crescent, 7% of the Moon is Illuminated
Nov 11
Waning Crescent
Nov 13
New
Nov 20
First Quarter
Nov 28
Full
Dec 6
Last Quarter

Hourly Weather History & Observations

Time (CST) Temp. Windchill Dew Point Humidity Pressure Visibility Wind Dir Wind Speed Gust Speed Precip Events Conditions
12:16 AM 44.6 °F 35.9 °F 42.8 °F 93% 29.61 in 10.0 mi West 23.0 mph 27.6 mph N/A   Overcast
12:53 AM 39.9 °F 31.1 °F 37.0 °F 89% 29.64 in 10.0 mi WNW 17.3 mph - 0.00 in   Overcast
1:22 AM 39.2 °F 29.6 °F 35.6 °F 87% 29.66 in 10.0 mi WNW 19.6 mph 25.3 mph N/A   Overcast
1:53 AM 37.9 °F 27.9 °F 35.1 °F 89% 29.67 in 10.0 mi NW 19.6 mph 26.5 mph 0.01 in   Overcast
2:53 AM 34.0 °F 23.4 °F 32.0 °F 92% 29.70 in 10.0 mi NW 17.3 mph - 0.00 in Rain Light Rain
3:45 AM 33.8 °F 22.5 °F 30.2 °F 87% 29.73 in 10.0 mi WNW 19.6 mph 24.2 mph 0.00 in   Overcast
3:53 AM 33.1 °F 21.9 °F 30.0 °F 89% 29.74 in 10.0 mi WNW 18.4 mph - 0.00 in   Overcast
4:53 AM 32.0 °F 20.1 °F 28.0 °F 85% 29.76 in 10.0 mi NW 19.6 mph 29.9 mph 0.00 in   Overcast
5:53 AM 30.0 °F 19.1 °F 26.1 °F 85% 29.77 in 9.0 mi NW 15.0 mph 26.5 mph N/A   Overcast
6:53 AM 28.9 °F 16.1 °F 24.1 °F 82% 29.80 in 10.0 mi NW 19.6 mph 28.8 mph N/A   Overcast
8:53 AM 27.0 °F 13.5 °F 21.0 °F 78% 29.87 in 10.0 mi WNW 19.6 mph 28.8 mph N/A   Overcast
9:05 AM 26.6 °F 12.7 °F 21.2 °F 80% 29.82 in 10.0 mi NW 20.7 mph 29.9 mph N/A   Overcast
9:53 AM 26.1 °F 12.0 °F 19.9 °F 78% 29.90 in 10.0 mi WNW 20.7 mph 32.2 mph N/A   Overcast
10:53 AM 26.1 °F 12.7 °F 18.0 °F 71% 29.92 in 10.0 mi NW 18.4 mph 27.6 mph N/A   Overcast
11:53 AM 28.9 °F 15.8 °F 19.9 °F 69% 29.88 in 10.0 mi NW 20.7 mph 31.1 mph N/A   Mostly Cloudy
12:53 PM 28.9 °F 14.8 °F 18.0 °F 64% 29.89 in 10.0 mi WNW 24.2 mph 35.7 mph N/A   Clear
1:53 PM 28.9 °F 14.3 °F 17.1 °F 61% 29.92 in 10.0 mi WNW 26.5 mph 31.1 mph N/A   Partly Cloudy
2:53 PM 28.0 °F 13.3 °F 15.1 °F 58% 29.93 in 10.0 mi WNW 25.3 mph 32.2 mph N/A   Scattered Clouds
3:53 PM 27.0 °F 11.9 °F 15.1 °F 61% 29.96 in 10.0 mi WNW 25.3 mph 29.9 mph N/A   Clear
4:53 PM 25.0 °F 9.9 °F 14.0 °F 63% 29.98 in 10.0 mi WNW 23.0 mph - N/A   Clear
5:53 PM 24.1 °F 11.5 °F 12.9 °F 62% 30.02 in 10.0 mi WNW 15.0 mph - N/A   Clear
6:53 PM 23.0 °F 8.0 °F 12.9 °F 65% 30.04 in 10.0 mi West 20.7 mph 25.3 mph N/A   Clear
7:53 PM 21.0 °F 4.6 °F 12.0 °F 68% 30.06 in 10.0 mi West 23.0 mph 29.9 mph N/A   Clear
8:53 PM 21.0 °F 5.7 °F 12.0 °F 68% 30.08 in 10.0 mi West 19.6 mph - N/A   Clear
9:53 PM 19.9 °F 3.5 °F 12.0 °F 71% 30.09 in 10.0 mi West 21.9 mph 27.6 mph N/A   Clear
10:53 PM 19.9 °F 3.9 °F 12.9 °F 74% 30.09 in 10.0 mi West 20.7 mph - N/A   Clear
11:53 PM 19.9 °F 5.2 °F 12.9 °F 74% 30.09 in 10.0 mi West 17.3 mph - N/A   Scattered Clouds